Weather History for WIII - April, 2014

Change the Weather History Date:

Thursday, April 3, 2014

  Actual Average Record
Temperature  
Mean Temperature 83 °F -  
Max Temperature 90 °F - - ()
Min Temperature 76 °F - - ()
Cooling Degree Days 18    
Growing Degree Days 33 (Base 50)    
Moisture  
Dew Point 76 °F    
Average Humidity 77    
Maximum Humidity 94    
Minimum Humidity 56    
Precipitation  
Precipitation 0.00 in - - ()
Sea Level Pressure  
Sea Level Pressure 29.79 in    
Wind  
Wind Speed 5 mph ()    
Max Wind Speed 15 mph    
Max Gust Speed -    
Visibility 3.6 miles    
Events Thunderstorm    
T = Trace of Precipitation, MM = Missing Value Source: Averaged Metar Reports

Daily Weather History Graph

Daily Weather History Graph

Search for Another Location

Airport or City:

Trip Planner

Search our weather history database for the weather conditions in past years. The results will help you decide how hot, cold, wet, or windy it might be!

Date:

Astronomy

Apr. 03, 2014 Rise Set
Actual Time 5:55 AM WIB 5:57 PM WIB
Civil Twilight 5:34 AM WIB 6:18 PM WIB
Nautical Twilight 5:10 AM WIB 6:42 PM WIB
Astronomical Twilight 4:46 AM WIB 7:06 PM WIB
Moon 8:47 AM WIB (4/3) 8:55 PM WIB (4/3)
Length of Visible Light 12h 43m
Length of Day
12h 02m
Waxing Crescent, 14% of the Moon is Illuminated
Apr 3
Waxing Crescent
Apr 7
First Quarter
Apr 15
Full
Apr 22
Last Quarter
Apr 29
New

Hourly Weather History & Observations

Time (WIB) Temp. Heat Index Dew Point Humidity Pressure Visibility Wind Dir Wind Speed Gust Speed Precip Events Conditions
12:00 AM 78.8 °F - 75.2 °F 89% 29.83 in 3.1 mi SW 4.6 mph - N/A   Scattered Clouds
12:30 AM 78.8 °F - 75.2 °F 89% 29.83 in 3.1 mi SW 3.5 mph - N/A   Scattered Clouds
1:00 AM 78 °F - 75 °F 88% 29.81 in 3 mi West 4.6 mph - -   Haze
1:00 AM 77.0 °F - 73.4 °F 89% 29.80 in 2.8 mi West 4.6 mph - N/A   Scattered Clouds
1:30 AM 77.0 °F - 73.4 °F 89% 29.80 in 2.8 mi WSW 5.8 mph - N/A   Scattered Clouds
2:00 AM 78.8 °F - 73.4 °F 83% 29.77 in 3.1 mi SW 4.6 mph - N/A   Scattered Clouds
2:30 AM 77.0 °F - 73.4 °F 89% 29.77 in 2.5 mi SW 3.5 mph - N/A   Scattered Clouds
3:00 AM 77.0 °F - 73.4 °F 89% 29.77 in 3.1 mi South 3.5 mph - N/A   Mist
3:30 AM 77.0 °F - 75.2 °F 94% 29.77 in 3.1 mi SSE 2.3 mph - N/A   Scattered Clouds
4:00 AM 77 °F - 76 °F 94% 29.78 in 3 mi Calm Calm - -   Haze
4:00 AM 77.0 °F - 73.4 °F 89% 29.77 in 3.1 mi Calm Calm - N/A   Scattered Clouds
4:30 AM 77.0 °F - 73.4 °F 89% 29.77 in 3.7 mi Variable 2.3 mph - N/A   Scattered Clouds
5:00 AM 77.0 °F - 73.4 °F 89% 29.77 in 3.7 mi Variable 2.3 mph - N/A   Unknown
5:30 AM 78.8 °F - 73.4 °F 83% 29.77 in 3.1 mi South 3.5 mph - N/A   Scattered Clouds
6:00 AM 78.8 °F - 73.4 °F 83% 29.80 in 3.1 mi South 4.6 mph - N/A   Scattered Clouds
6:30 AM 78.8 °F - 73.4 °F 83% 29.80 in 3.1 mi South 3.5 mph - N/A   Scattered Clouds
7:00 AM 78 °F - 75 °F 86% 29.82 in 3 mi SSW 4.6 mph - -   Haze
7:00 AM 78.8 °F - 73.4 °F 83% 29.80 in 3.1 mi SSW 4.6 mph - N/A   Haze
7:30 AM 82.4 °F 88.2 °F 73.4 °F 74% 29.83 in 3.1 mi Variable 3.5 mph - N/A   Haze
8:00 AM 84.2 °F 90.9 °F 73.4 °F 70% 29.83 in 3.7 mi SSW 4.6 mph - N/A   Partly Cloudy
8:30 AM 86.0 °F 95.1 °F 75.2 °F 70% 29.83 in 3.7 mi SSE 4.6 mph - N/A   Partly Cloudy
9:00 AM 89.6 °F 99.8 °F 75.2 °F 62% 29.83 in 3.1 mi Variable 3.5 mph - N/A   Haze
9:30 AM 89.6 °F 99.8 °F 75.2 °F 62% 29.83 in 3.7 mi Variable 5.8 mph - N/A   Scattered Clouds
10:00 AM 89 °F - 78 °F 62% 29.84 in 4 mi NNW 3.5 mph - -   Haze
10:00 AM 89.6 °F 99.8 °F 75.2 °F 62% 29.83 in 3.1 mi Variable 5.8 mph - N/A   Haze
10:30 AM 89.6 °F 99.8 °F 75.2 °F 62% 29.83 in 3.7 mi NNE 9.2 mph - N/A   Scattered Clouds
11:00 AM 91.4 °F 105.1 °F 77.0 °F 63% 29.83 in 4.3 mi NE 9.2 mph - N/A   Partly Cloudy
11:30 AM 91.4 °F 102.5 °F 75.2 °F 59% 29.80 in 4.3 mi NNE 10.4 mph - N/A   Partly Cloudy
12:00 PM 91.4 °F 102.5 °F 75.2 °F 59% 29.80 in 4.3 mi NNE 10.4 mph - N/A   Partly Cloudy
12:30 PM 91.4 °F 105.1 °F 77.0 °F 63% 29.77 in 5.0 mi North 11.5 mph - N/A   Scattered Clouds
1:00 PM 90 °F - 76 °F 56% 29.77 in 6 mi North 8.1 mph - -   Partly Cloudy
1:00 PM 91.4 °F 105.1 °F 77.0 °F 63% 29.77 in 5.0 mi North 8.1 mph - N/A   Scattered Clouds
1:30 PM 91.4 °F 105.1 °F 77.0 °F 63% 29.74 in 5.0 mi NNE 10.4 mph - N/A   Scattered Clouds
2:00 PM 89.6 °F 102.2 °F 77.0 °F 66% 29.74 in 3.7 mi North 15.0 mph - N/A Thunderstorm Thunderstorm
2:30 PM 87.8 °F 99.7 °F 77.0 °F 70% 29.74 in 3.7 mi North 13.8 mph - N/A Thunderstorm Thunderstorm
3:00 PM 87.8 °F 99.7 °F 77.0 °F 70% 29.74 in 4.3 mi North 12.7 mph - N/A   Scattered Clouds
3:30 PM 87.8 °F 99.7 °F 77.0 °F 70% 29.74 in 5.0 mi NNE 13.8 mph - N/A   Scattered Clouds
4:00 PM 86 °F - 78 °F 70% 29.74 in 4 mi NNE 9.2 mph - -   Haze
4:00 PM 86.0 °F 96.9 °F 77.0 °F 74% 29.74 in 4.3 mi NNE 9.2 mph - N/A   Scattered Clouds
4:30 PM 86.0 °F 96.9 °F 77.0 °F 74% 29.74 in 3.7 mi NNE 11.5 mph - N/A   Scattered Clouds
5:00 PM 86.0 °F 96.9 °F 77.0 °F 74% 29.74 in 4.3 mi NE 8.1 mph - N/A   Scattered Clouds
5:30 PM 86.0 °F 99.3 °F 78.8 °F 79% 29.77 in - NNE 10.4 mph - N/A   Haze
6:00 PM 84.2 °F 94.1 °F 77.0 °F 79% 29.77 in 3.7 mi NNE 6.9 mph - N/A   Scattered Clouds
6:30 PM 84.2 °F 94.1 °F 77.0 °F 79% 29.77 in 3.7 mi NNE 5.8 mph - N/A   Scattered Clouds
7:00 PM 83 °F - 79 °F 85% 29.80 in 4 mi NNE 4.6 mph - -   Haze
7:00 PM 82.4 °F 90.9 °F 77.0 °F 84% 29.80 in 3.1 mi NNE 4.6 mph - N/A   Haze
7:30 PM 82.4 °F 90.9 °F 77.0 °F 84% 29.80 in 3.7 mi ENE 4.6 mph - N/A   Scattered Clouds
8:00 PM 82.4 °F 90.9 °F 77.0 °F 84% 29.80 in 4.3 mi ENE 4.6 mph - N/A   Scattered Clouds
8:30 PM 84.2 °F 94.1 °F 77.0 °F 79% 29.83 in 4.3 mi ENE 3.5 mph - N/A   Scattered Clouds
9:00 PM 84.2 °F 94.1 °F 77.0 °F 79% 29.83 in 3.1 mi East 5.8 mph - N/A   Haze
9:30 PM 82.4 °F 90.9 °F 77.0 °F 84% 29.83 in 3.1 mi South 3.5 mph - N/A   Haze
10:00 PM 82 °F - 78 °F 83% 29.84 in 3 mi SSW 2.3 mph - -   Haze
10:00 PM 82.4 °F 90.9 °F 77.0 °F 84% 29.83 in - Variable 2.3 mph - N/A   Haze
10:30 PM 84.2 °F 94.1 °F 77.0 °F 79% 29.83 in - SSW 5.8 mph - N/A   Haze
11:00 PM 82.4 °F 90.9 °F 77.0 °F 84% 29.83 in - SSW 5.8 mph - N/A   Haze
11:30 PM 82.4 °F 90.9 °F 77.0 °F 84% 29.83 in 1.4 mi SW 5.8 mph - N/A Thunderstorm Scattered Clouds